Total_Precipitation_Accumulation
2.11 2.19 2.11 2.09 2.04 1.96 1.84 1.67 1.61 1.54 1.43 1.34 1.26 1.20 1.20 1.25 1.26 1.30 1.27 1.23 1.18 1.14 1.11 1.10 1.12 1.17 1.26 1.26 1.29 1.44 1.65 1.83 1.87 1.52 1.39 1.47 1.61 1.57 1.57 1.51 1.41 1.36 1.40
1.72 1.88 1.94 1.87 1.71 1.62 1.55 1.48 1.39 1.31 1.25 1.21 1.10 1.03 1.00 1.00 1.00 1.02 1.05 1.05 1.05 1.00 1.02 1.07 1.07 1.09 1.16 1.21 1.27 1.35 1.49 1.72 1.88 1.77 1.54 1.55 1.62 1.63 1.67 1.64 1.43 1.28 1.33
1.49 1.55 1.57 1.52 1.44 1.36 1.33 1.34 1.25 1.18 1.12 1.06 1.02 1.01 0.94 0.92 0.89 0.87 0.90 0.97 0.96 0.92 0.95 1.01 1.06 1.18 1.18 1.19 1.26 1.31 1.41 1.54 1.83 1.88 1.68 1.65 1.72 1.77 1.88 1.75 1.57 1.52 1.26
1.27 1.31 1.32 1.33 1.31 1.26 1.17 1.15 1.13 1.10 1.08 1.03 1.01 0.95 0.91 0.87 0.85 0.83 0.84 0.89 0.90 0.89 0.94 0.99 1.04 1.17 1.25 1.28 1.29 1.33 1.39 1.52 1.71 1.87 1.82 1.77 1.83 1.91 1.94 1.89 1.76 1.61 1.44
1.21 1.17 1.21 1.27 1.28 1.23 1.22 1.19 1.14 1.06 1.00 1.00 0.99 0.94 0.89 0.84 0.80 0.78 0.78 0.81 0.90 0.92 0.90 0.90 0.93 1.05 1.15 1.15 1.07 1.12 1.29 1.52 1.60 1.78 1.82 1.80 1.81 1.93 1.89 1.69 1.64 1.58 1.42
1.24 1.20 1.21 1.22 1.18 1.17 1.17 1.14 1.10 1.04 1.00 0.98 0.97 0.93 0.86 0.73 0.76 0.77 0.75 0.80 0.85 0.88 0.86 0.86 0.81 0.81 0.81 0.83 0.88 0.94 1.09 1.37 1.70 1.90 1.85 1.79 1.69 1.67 1.73 1.67 1.67 1.69 1.61
1.36 1.25 1.23 1.20 1.11 1.07 1.00 0.99 1.04 1.03 0.97 0.91 0.88 0.90 0.86 0.78 0.73 0.68 0.71 0.78 0.86 0.91 0.94 0.91 0.73 0.63 0.74 0.80 0.85 0.90 1.03 1.21 1.52 1.88 1.95 1.73 1.68 1.65 1.72 1.71 1.76 1.82 1.69
1.31 1.20 1.15 1.13 1.06 1.05 1.04 1.03 1.03 1.00 0.95 0.95 0.92 0.93 0.92 0.79 0.71 0.65 0.68 0.74 0.84 0.87 0.88 0.91 0.91 0.84 0.80 0.89 0.95 1.02 1.14 1.26 1.38 1.51 1.81 1.62 1.43 1.45 1.56 1.63 1.73 1.75 1.65
1.30 1.12 1.02 0.99 0.93 0.94 0.98 1.00 0.97 0.95 0.92 0.88 0.88 0.90 0.97 0.89 0.77 0.68 0.65 0.71 0.80 0.81 0.77 0.77 0.77 0.80 0.88 1.06 1.17 1.35 1.46 1.56 1.48 1.64 1.82 1.76 1.62 1.56 1.45 1.53 1.78 1.82 1.73
1.06 0.94 0.91 0.92 0.85 0.85 0.88 0.87 0.85 0.86 0.86 0.82 0.79 0.83 0.87 0.83 0.69 0.59 0.56 0.62 0.75 0.79 0.81 0.79 0.73 0.68 0.81 0.99 1.23 1.52 1.67 1.73 1.60 1.71 1.98 2.02 1.85 1.85 1.84 1.73 1.86 1.91 1.83
0.89 0.81 0.84 0.85 0.79 0.75 0.78 0.79 0.79 0.75 0.78 0.79 0.76 0.76 0.72 0.63 0.55 0.49 0.48 0.52 0.62 0.73 0.79 0.86 0.83 0.75 0.80 1.01 1.23 1.43 1.59 1.63 1.67 1.76 1.79 1.81 1.90 1.94 1.93 1.86 1.83 1.82 1.78
0.81 0.78 0.83 0.84 0.64 0.56 0.66 0.69 0.70 0.75 0.76 0.77 0.77 0.71 0.60 0.56 0.48 0.45 0.46 0.46 0.49 0.65 0.83 0.85 0.85 0.81 0.83 1.03 1.20 1.45 1.67 1.76 1.74 1.78 1.64 1.54 1.51 1.54 1.62 1.60 1.56 1.53 1.49
0.78 0.79 0.79 0.75 0.67 0.59 0.63 0.64 0.69 0.74 0.71 0.67 0.69 0.67 0.56 0.53 0.48 0.43 0.45 0.49 0.51 0.58 0.74 0.82 0.83 0.82 0.95 1.25 1.42 1.58 1.75 1.87 1.89 1.77 1.57 1.44 1.32 1.26 1.27 1.34 1.39 1.38 1.30
0.81 0.80 0.78 0.74 0.66 0.60 0.61 0.57 0.59 0.63 0.62 0.59 0.60 0.61 0.58 0.54 0.48 0.45 0.50 0.56 0.60 0.63 0.73 0.87 0.95 0.98 1.14 1.44 1.65 1.83 1.88 1.80 1.64 1.58 1.49 1.40 1.25 1.20 1.22 1.16 1.20 1.24 1.25
0.77 0.72 0.70 0.62 0.59 0.58 0.53 0.42 0.40 0.41 0.42 0.48 0.54 0.54 0.51 0.48 0.43 0.46 0.48 0.50 0.56 0.59 0.67 0.86 1.04 1.15 1.32 1.52 1.69 1.76 1.74 1.64 1.53 1.35 1.29 1.33 1.30 1.21 1.19 1.10 1.08 1.11 1.18
0.71 0.68 0.62 0.56 0.53 0.50 0.52 0.43 0.35 0.32 0.30 0.29 0.33 0.34 0.37 0.42 0.43 0.44 0.44 0.48 0.52 0.59 0.67 0.88 1.03 1.11 1.28 1.49 1.62 1.59 1.49 1.41 1.32 1.21 1.16 1.14 1.13 1.09 1.08 1.05 0.97 0.97 1.04
0.62 0.61 0.58 0.54 0.50 0.48 0.51 0.54 0.50 0.36 0.27 0.27 0.29 0.31 0.35 0.37 0.36 0.36 0.39 0.44 0.47 0.54 0.65 0.86 1.00 1.12 1.31 1.43 1.45 1.41 1.37 1.27 1.19 1.16 1.13 1.05 0.98 0.96 0.95 0.91 0.89 0.91 0.88
0.45 0.43 0.45 0.50 0.50 0.47 0.44 0.45 0.45 0.46 0.44 0.39 0.34 0.33 0.31 0.31 0.29 0.29 0.34 0.38 0.44 0.48 0.64 0.83 0.98 1.08 1.18 1.26 1.33 1.36 1.32 1.22 1.13 1.11 1.16 1.12 1.02 0.94 0.87 0.84 0.82 0.77 0.76
0.36 0.39 0.36 0.37 0.41 0.41 0.39 0.39 0.39 0.42 0.44 0.43 0.39 0.34 0.31 0.30 0.30 0.34 0.37 0.41 0.49 0.58 0.67 0.79 0.89 0.99 1.02 1.02 1.10 1.15 1.16 1.14 1.09 1.05 1.04 1.05 0.99 0.90 0.80 0.72 0.69 0.58 0.58
0.26 0.25 0.26 0.26 0.30 0.33 0.33 0.35 0.35 0.35 0.37 0.38 0.37 0.34 0.34 0.39 0.42 0.45 0.45 0.42 0.48 0.57 0.66 0.75 0.83 0.88 0.86 0.83 0.82 0.86 0.90 0.94 0.94 0.90 0.88 0.88 0.86 0.77 0.70 0.65 0.63 0.61 0.60
0.19 0.19 0.22 0.21 0.22 0.22 0.21 0.22 0.26 0.28 0.30 0.34 0.33 0.31 0.38 0.44 0.49 0.50 0.50 0.50 0.52 0.56 0.60 0.63 0.67 0.70 0.68 0.68 0.67 0.69 0.74 0.79 0.80 0.80 0.77 0.75 0.71 0.69 0.62 0.58 0.55 0.53 0.51
0.17 0.17 0.20 0.21 0.18 0.17 0.16 0.18 0.22 0.24 0.25 0.29 0.32 0.34 0.43 0.44 0.49 0.53 0.56 0.56 0.56 0.55 0.54 0.54 0.54 0.54 0.55 0.56 0.55 0.57 0.60 0.63 0.69 0.74 0.75 0.70 0.62 0.58 0.52 0.48 0.49 0.50 0.50
0.17 0.17 0.20 0.22 0.18 0.17 0.17 0.19 0.20 0.21 0.23 0.26 0.28 0.33 0.40 0.47 0.54 0.59 0.59 0.58 0.57 0.55 0.50 0.50 0.51 0.52 0.51 0.49 0.48 0.52 0.55 0.57 0.63 0.71 0.75 0.70 0.60 0.54 0.48 0.45 0.47 0.51 0.50
0.18 0.19 0.20 0.21 0.19 0.16 0.16 0.18 0.19 0.21 0.23 0.26 0.28 0.31 0.36 0.44 0.50 0.57 0.61 0.59 0.59 0.57 0.53 0.50 0.50 0.49 0.46 0.43 0.40 0.38 0.39 0.44 0.53 0.61 0.65 0.64 0.55 0.47 0.42 0.41 0.42 0.43 0.46
0.20 0.19 0.17 0.17 0.17 0.18 0.17 0.17 0.18 0.20 0.21 0.21 0.23 0.24 0.27 0.33 0.39 0.48 0.57 0.61 0.63 0.63 0.58 0.54 0.54 0.51 0.45 0.38 0.32 0.28 0.34 0.42 0.48 0.52 0.56 0.53 0.45 0.40 0.39 0.39 0.39 0.38 0.39
0.18 0.19 0.17 0.15 0.14 0.15 0.17 0.17 0.16 0.18 0.19 0.19 0.18 0.19 0.22 0.25 0.31 0.36 0.44 0.51 0.56 0.61 0.65 0.67 0.63 0.51 0.41 0.35 0.32 0.32 0.33 0.34 0.36 0.40 0.44 0.44 0.37 0.37 0.39 0.38 0.33 0.34 0.36